| time (UTC) | temp F | wind direction | speed MPH | gust MPH | rain 1hr in | rain 24hr in | rain mn in | humidity % | barometer mb |
| 20260508013035 | 65 | 186 | 0.0 | 0.0 | 0.00 | 0.00 | 0.00 | 65 | 1014.1 |
| 20260508011534 | 65 | 165 | 0.0 | 0.0 | 0.00 | 0.00 | 0.00 | 65 | 1014.2 |
| 20260508010035 | 66 | 163 | 0.0 | 1.0 | 0.00 | 0.00 | 0.00 | 64 | 1014.2 |
| 20260508004534 | 66 | 214 | 0.0 | 3.0 | 0.00 | 0.00 | 0.00 | 63 | 1014.2 |
| 20260508003032 | 66 | 113 | 0.0 | 2.0 | 0.00 | 0.00 | 0.00 | 64 | 1014.0 |
| 20260508001530 | 67 | 139 | 0.0 | 2.0 | 0.00 | 0.00 | 0.00 | 63 | 1014.4 |
| 20260508000031 | 67 | 152 | 0.0 | 2.0 | 0.00 | 0.00 | 0.00 | 62 | 1014.4 |
| 20260507234542 | 68 | 184 | 0.0 | 5.0 | 0.00 | 0.00 | 0.00 | 60 | 1014.4 |
| 20260507233029 | 68 | 217 | 1.0 | 4.0 | 0.00 | 0.00 | 0.00 | 60 | 1014.4 |
| 20260507231529 | 68 | 158 | 2.0 | 5.0 | 0.00 | 0.00 | 0.00 | 59 | 1014.5 |
| 20260507230029 | 68 | 95 | 1.0 | 6.0 | 0.00 | 0.00 | 0.00 | 60 | 1014.6 |
| 20260507224528 | 68 | 111 | 2.0 | 5.0 | 0.00 | 0.04 | 0.00 | 59 | 1014.6 |
| 20260507223023 | 69 | 138 | 1.0 | 8.0 | 0.00 | 0.04 | 0.00 | 58 | 1014.7 |
| 20260507221530 | 70 | 155 | 0.0 | 3.0 | 0.00 | 0.04 | 0.00 | 59 | 1014.7 |
| 20260507220031 | 70 | 104 | 0.0 | 0.0 | 0.00 | 0.04 | 0.00 | 55 | 1014.7 |
| 20260507214521 | 71 | 90 | 0.0 | 0.0 | 0.00 | 0.04 | 0.00 | 54 | 1014.8 |
| 20260507213027 | 70 | 156 | 0.0 | 0.0 | 0.00 | 0.04 | 0.00 | 53 | 1015.0 |
| 20260507211518 | 71 | 144 | 0.0 | 0.0 | 0.00 | 0.04 | 0.00 | 54 | 1015.3 |
| 20260507210025 | 70 | 186 | 0.0 | 0.0 | 0.00 | 0.04 | 0.00 | 56 | 1015.6 |
| 20260507204517 | 70 | 186 | 0.0 | 0.0 | 0.00 | 0.04 | 0.00 | 52 | 1015.5 |
| 20260507203016 | 70 | 304 | 0.0 | 0.0 | 0.00 | 0.04 | 0.00 | 54 | 1015.3 |
| 20260507201515 | 70 | 36 | 0.0 | 0.0 | 0.00 | 0.04 | 0.00 | 54 | 1015.4 |
| 20260507200014 | 71 | 324 | 0.0 | 1.0 | 0.00 | 0.04 | 0.00 | 52 | 1015.8 |
| 20260507194527 | 70 | 53 | 0.0 | 0.0 | 0.00 | 0.04 | 0.00 | 53 | 1016.1 |
| 20260507193014 | 70 | 349 | 0.0 | 1.0 | 0.00 | 0.04 | 0.00 | 53 | 1016.4 |
| 20260507191510 | 70 | 163 | 1.0 | 4.0 | 0.00 | 0.04 | 0.00 | 49 | 1016.9 |
| 20260507190013 | 70 | 23 | 0.0 | 2.0 | 0.00 | 0.04 | 0.00 | 51 | 1016.8 |
| 20260507184509 | 70 | 67 | 1.0 | 4.0 | 0.00 | 0.04 | 0.00 | 53 | 1016.8 |
| 20260507183008 | 72 | 65 | 1.0 | 3.0 | 0.00 | 0.04 | 0.00 | 50 | 1016.8 |
| 20260507181505 | 71 | 33 | 0.0 | 2.0 | 0.00 | 0.04 | 0.00 | 50 | 1017.0 |
| 20260507180004 | 69 | 48 | 0.0 | 3.0 | 0.00 | 0.04 | 0.00 | 55 | 1017.1 |
| 20260507174508 | 69 | 38 | 0.0 | 4.0 | 0.00 | 0.04 | 0.00 | 56 | 1017.4 |
| 20260507173115 | 68 | 23 | 0.0 | 4.0 | 0.00 | 0.04 | 0.00 | 58 | 1017.6 |
| 20260507171558 | 68 | 355 | 0.0 | 2.0 | 0.00 | 0.04 | 0.00 | 58 | 1017.9 |
| 20260507170058 | 67 | 53 | 0.0 | 1.0 | 0.00 | 0.04 | 0.00 | 61 | 1018.5 |
| 20260507164628 | 66 | 69 | 0.0 | 2.0 | 0.00 | 0.04 | 0.00 | 63 | 1018.9 |
| 20260507163055 | 66 | 22 | 0.0 | 2.0 | 0.00 | 0.04 | 0.00 | 66 | 1019.0 |
| 20260507161556 | 65 | 24 | 0.0 | 3.0 | 0.00 | 0.04 | 0.00 | 67 | 1019.1 |
| 20260507160048 | 64 | 64 | 0.0 | 3.0 | 0.00 | 0.04 | 0.00 | 68 | 1019.0 |
| 20260507154546 | 63 | 38 | 0.0 | 3.0 | 0.00 | 0.08 | 0.00 | 69 | 1018.9 |
| 20260507153044 | 63 | 9 | 0.0 | 2.0 | 0.00 | 0.08 | 0.00 | 71 | 1019.2 |
| 20260507151546 | 62 | 104 | 0.0 | 2.0 | 0.00 | 0.08 | 0.00 | 71 | 1019.3 |
| 20260507150045 | 62 | 72 | 0.0 | 2.0 | 0.00 | 0.08 | 0.00 | 73 | 1019.5 |
| 20260507144539 | 61 | 60 | 0.0 | 2.0 | 0.00 | 0.08 | 0.00 | 74 | 1019.7 |
| 20260507143040 | 61 | 71 | 0.0 | 1.0 | 0.00 | 0.08 | 0.00 | 78 | 1019.6 |
| 20260507141533 | 59 | 66 | 0.0 | 3.0 | 0.00 | 0.08 | 0.00 | 81 | 1019.6 |
| 20260507140027 | 59 | 46 | 0.0 | 0.0 | 0.00 | 0.08 | 0.00 | 83 | 1019.7 |
| 20260507134524 | 57 | 173 | 0.0 | 1.0 | 0.00 | 0.08 | 0.00 | 86 | 1019.9 |
| 20260507133025 | 56 | 173 | 0.0 | 1.0 | 0.00 | 0.08 | 0.00 | 87 | 1020.1 |
| 20260507131520 | 55 | 173 | 0.0 | 1.0 | 0.00 | 0.08 | 0.00 | 88 | 1020.0 |
| 20260507130019 | 54 | 173 | 0.0 | 1.0 | 0.00 | 0.08 | 0.00 | 89 | 1020.1 |
| 20260507124521 | 54 | 147 | 0.0 | 0.0 | 0.00 | 0.08 | 0.00 | 89 | 1020.0 |
| 20260507123019 | 53 | 142 | 0.0 | 0.0 | 0.00 | 0.08 | 0.00 | 89 | 1019.7 |
| 20260507121514 | 52 | 157 | 0.0 | 0.0 | 0.00 | 0.08 | 0.00 | 89 | 1019.6 |
| 20260507120010 | 52 | 74 | 0.0 | 1.0 | 0.00 | 0.08 | 0.00 | 89 | 1019.8 |
| 20260507114509 | 52 | 74 | 0.0 | 0.0 | 0.00 | 0.08 | 0.00 | 89 | 1019.8 |
| 20260507113017 | 52 | 74 | 0.0 | 0.0 | 0.00 | 0.08 | 0.00 | 89 | 1019.4 |
| 20260507111503 | 53 | 74 | 0.0 | 0.0 | 0.00 | 0.08 | 0.00 | 88 | 1019.1 |
| 20260507110001 | 53 | 74 | 0.0 | 0.0 | 0.00 | 0.08 | 0.00 | 88 | 1019.0 |
| 20260507104559 | 52 | 74 | 0.0 | 0.0 | 0.00 | 0.08 | 0.00 | 88 | 1018.8 |
| 20260507103057 | 53 | 74 | 0.0 | 0.0 | 0.00 | 0.08 | 0.00 | 88 | 1018.4 |
| 20260507101553 | 53 | 74 | 0.0 | 0.0 | 0.00 | 0.08 | 0.00 | 87 | 1018.2 |
| 20260507100056 | 53 | 74 | 0.0 | 0.0 | 0.00 | 0.08 | 0.00 | 87 | 1018.0 |
| 20260507094547 | 54 | 74 | 0.0 | 0.0 | 0.00 | 0.08 | 0.00 | 87 | 1017.6 |
| 20260507093049 | 54 | 74 | 0.0 | 0.0 | 0.00 | 0.08 | 0.00 | 86 | 1017.5 |
| 20260507091544 | 55 | 74 | 0.0 | 1.0 | 0.00 | 0.08 | 0.00 | 86 | 1017.5 |
| 20260507090041 | 55 | 75 | 0.0 | 1.0 | 0.00 | 0.08 | 0.00 | 85 | 1017.2 |
| 20260507084545 | 55 | 53 | 0.0 | 2.0 | 0.00 | 0.08 | 0.00 | 85 | 1016.9 |
| 20260507083039 | 55 | 82 | 0.0 | 1.0 | 0.00 | 0.08 | 0.00 | 85 | 1017.0 |
| 20260507081544 | 56 | 82 | 0.0 | 0.0 | 0.00 | 0.08 | 0.00 | 85 | 1017.2 |
| 20260507080035 | 56 | 65 | 0.0 | 0.0 | 0.00 | 0.08 | 0.00 | 84 | 1017.1 |
| 20260507074536 | 56 | 59 | 0.0 | 2.0 | 0.00 | 0.08 | 0.00 | 83 | 1017.1 |
| 20260507073033 | 57 | 78 | 0.0 | 1.0 | 0.00 | 0.08 | 0.00 | 82 | 1016.7 |
| 20260507071528 | 57 | 102 | 0.0 | 2.0 | 0.00 | 0.08 | 0.00 | 82 | 1016.3 |
| 20260507070027 | 57 | 82 | 0.0 | 2.0 | 0.00 | 0.08 | 0.00 | 82 | 1016.4 |
| 20260507064526 | 57 | 59 | 0.0 | 1.0 | 0.00 | 0.08 | 0.00 | 82 | 1016.4 |
| 20260507063027 | 57 | 46 | 0.0 | 2.0 | 0.00 | 0.08 | 0.00 | 83 | 1016.4 |
| 20260507061523 | 58 | 74 | 1.0 | 3.0 | 0.00 | 0.08 | 0.00 | 83 | 1016.3 |
| 20260507060020 | 58 | 54 | 0.0 | 3.0 | 0.00 | 0.08 | 0.00 | 82 | 1016.2 |
| 20260507054520 | 59 | 63 | 1.0 | 3.0 | 0.00 | 0.08 | 0.00 | 81 | 1016.3 |
| 20260507053017 | 59 | 9 | 0.0 | 3.0 | 0.00 | 0.08 | 0.00 | 79 | 1016.2 |
| 20260507051516 | 59 | 111 | 0.0 | 3.0 | 0.00 | 0.08 | 0.00 | 79 | 1016.3 |
| 20260507050014 | 59 | 34 | 0.0 | 2.0 | 0.00 | 0.08 | 0.00 | 78 | 1016.2 |
| 20260507044512 | 59 | 21 | 0.0 | 2.0 | 0.00 | 0.08 | 0.08 | 78 | 1016.3 |
| 20260507043021 | 59 | 34 | 0.0 | 3.0 | 0.00 | 0.08 | 0.08 | 78 | 1016.3 |
| 20260507041512 | 59 | 56 | 0.0 | 3.0 | 0.00 | 0.08 | 0.08 | 78 | 1016.5 |
| 20260507040010 | 60 | 47 | 0.0 | 2.0 | 0.00 | 0.08 | 0.08 | 80 | 1016.5 |
| 20260507034520 | 60 | 51 | 0.0 | 2.0 | 0.00 | 0.08 | 0.08 | 81 | 1016.6 |
| 20260507033010 | 60 | 59 | 0.0 | 2.0 | 0.00 | 0.08 | 0.08 | 81 | 1016.4 |
| 20260507031508 | 60 | 52 | 0.0 | 4.0 | 0.00 | 0.08 | 0.08 | 82 | 1016.2 |
| 20260507030009 | 60 | 56 | 0.0 | 3.0 | 0.00 | 0.08 | 0.08 | 82 | 1016.2 |
| 20260507024513 | 60 | 32 | 0.0 | 2.0 | 0.00 | 0.08 | 0.08 | 83 | 1016.0 |
| 20260507023006 | 60 | 69 | 0.0 | 2.0 | 0.00 | 0.08 | 0.08 | 85 | 1015.6 |
| 20260507021501 | 60 | 69 | 0.0 | 0.0 | 0.00 | 0.08 | 0.08 | 86 | 1015.3 |
| 20260507020105 | 60 | 103 | 0.0 | 0.0 | 0.00 | 0.08 | 0.08 | 86 | 1015.0 |
| 20260507014602 | 60 | 90 | 0.0 | 0.0 | 0.00 | 0.08 | 0.08 | 87 | 1014.6 |